Time,TemperatureF,DewpointF,PressureIn,WindDirection,WindDirectionDegrees,WindSpeedMPH,WindSpeedGustMPH,Humidity,HourlyPrecipIn,Conditions,Clouds,dailyrainin,SoftwareType,DateUTC
2013-08-10 00:01:00,74.8,70.0,30.15,North,353,0.0,0.0,85,0.00,,,0.00,meteohub,2013-08-10 04:01:00,
2013-08-10 00:02:00,74.8,70.0,30.15,North,353,0.0,0.0,85,0.00,,,0.00,meteohub,2013-08-10 04:02:00,
2013-08-10 00:07:00,74.8,70.0,30.15,North,353,0.0,0.0,85,0.00,,,0.00,meteohub,2013-08-10 04:07:00,
2013-08-10 00:12:00,74.8,70.0,30.15,North,353,0.0,0.0,85,0.00,,,0.00,meteohub,2013-08-10 04:12:00,
2013-08-10 00:17:00,74.8,70.0,30.15,North,353,0.0,0.0,85,0.00,,,0.00,meteohub,2013-08-10 04:17:00,
2013-08-10 00:22:00,74.8,70.3,30.15,North,353,0.0,0.0,86,0.00,,,0.00,meteohub,2013-08-10 04:22:00,
2013-08-10 00:27:00,74.8,70.3,30.15,North,353,0.0,0.0,86,0.00,,,0.00,meteohub,2013-08-10 04:27:00,
2013-08-10 00:32:00,74.8,70.3,30.15,North,353,0.0,0.0,86,0.00,,,0.00,meteohub,2013-08-10 04:32:00,
2013-08-10 00:37:00,74.8,70.3,30.15,North,353,0.0,0.0,86,0.00,,,0.00,meteohub,2013-08-10 04:37:00,
2013-08-10 00:42:00,74.8,70.3,30.15,North,353,0.0,0.0,86,0.00,,,0.00,meteohub,2013-08-10 04:42:00,
2013-08-10 00:47:00,74.8,70.3,30.15,North,353,0.0,0.0,86,0.00,,,0.00,meteohub,2013-08-10 04:47:00,
2013-08-10 00:52:00,74.8,70.3,30.15,North,353,0.0,0.0,86,0.00,,,0.00,meteohub,2013-08-10 04:52:00,
2013-08-10 00:57:00,74.8,70.3,30.15,North,353,0.0,0.0,86,0.00,,,0.00,meteohub,2013-08-10 04:57:00,
2013-08-10 01:02:00,74.8,70.7,30.15,North,353,0.0,0.0,87,0.00,,,0.00,meteohub,2013-08-10 05:02:00,
2013-08-10 01:07:00,74.8,70.7,30.15,North,353,0.0,0.0,87,0.00,,,0.00,meteohub,2013-08-10 05:07:00,
2013-08-10 01:12:00,74.7,70.5,30.15,North,353,0.0,0.0,87,0.00,,,0.00,meteohub,2013-08-10 05:12:00,
2013-08-10 01:17:00,74.7,70.5,30.15,North,353,0.0,0.0,87,0.00,,,0.00,meteohub,2013-08-10 05:17:00,
2013-08-10 01:22:00,74.7,70.5,30.15,North,353,0.0,0.0,87,0.00,,,0.00,meteohub,2013-08-10 05:22:00,
2013-08-10 01:27:00,74.7,70.5,30.15,North,353,0.0,0.0,87,0.00,,,0.00,meteohub,2013-08-10 05:27:00,
2013-08-10 01:32:00,74.5,70.3,30.15,North,353,0.0,0.0,87,0.00,,,0.00,meteohub,2013-08-10 05:32:00,
2013-08-10 01:37:00,74.5,70.3,30.15,North,353,0.0,0.0,87,0.00,,,0.00,meteohub,2013-08-10 05:37:00,
2013-08-10 01:42:00,74.5,70.3,30.15,North,353,0.0,0.0,87,0.00,,,0.00,meteohub,2013-08-10 05:42:00,
2013-08-10 01:47:00,74.5,70.3,30.15,North,353,0.0,0.0,87,0.00,,,0.00,meteohub,2013-08-10 05:47:00,
2013-08-10 01:52:00,74.5,70.3,30.15,North,353,0.0,0.0,87,0.00,,,0.00,meteohub,2013-08-10 05:52:00,
2013-08-10 01:57:00,74.5,70.3,30.15,North,353,0.0,0.0,87,0.00,,,0.00,meteohub,2013-08-10 05:57:00,
2013-08-10 02:02:00,74.5,70.3,30.15,North,353,0.0,0.0,87,0.00,,,0.00,meteohub,2013-08-10 06:02:00,
2013-08-10 02:07:00,74.5,70.3,30.15,North,353,0.0,0.0,87,0.00,,,0.00,meteohub,2013-08-10 06:07:00,
2013-08-10 02:12:00,74.5,70.7,30.15,North,353,0.0,0.0,88,0.00,,,0.00,meteohub,2013-08-10 06:12:00,
2013-08-10 02:18:00,74.5,70.7,-100.00,North,353,0.0,0.0,88,0.00,,,0.00,meteohub,2013-08-10 06:18:00,
2013-08-10 02:23:00,74.5,70.7,30.15,North,353,0.0,0.0,88,0.00,,,0.00,meteohub,2013-08-10 06:23:00,
2013-08-10 02:28:00,74.5,70.7,30.15,North,353,0.0,0.0,88,0.00,,,0.00,meteohub,2013-08-10 06:28:00,
2013-08-10 02:33:00,74.5,70.7,30.15,North,353,0.0,0.0,88,0.00,,,0.00,meteohub,2013-08-10 06:33:00,
2013-08-10 02:38:00,74.3,70.5,30.15,North,353,0.0,0.0,88,0.00,,,0.00,meteohub,2013-08-10 06:38:00,
2013-08-10 02:43:00,74.3,70.5,30.15,North,353,0.0,0.0,88,0.00,,,0.00,meteohub,2013-08-10 06:43:00,
2013-08-10 02:48:00,74.3,70.5,30.15,North,353,0.0,0.0,88,0.00,,,0.00,meteohub,2013-08-10 06:48:00,
2013-08-10 02:53:00,74.3,70.5,30.15,North,353,0.0,0.0,88,0.00,,,0.00,meteohub,2013-08-10 06:53:00,
2013-08-10 02:58:00,74.3,70.5,30.12,North,353,0.0,0.0,88,0.00,,,0.00,meteohub,2013-08-10 06:58:00,
2013-08-10 03:03:00,74.1,70.3,30.12,North,353,0.0,0.0,88,0.00,,,0.00,meteohub,2013-08-10 07:03:00,
2013-08-10 03:08:00,74.1,70.3,30.12,North,353,0.0,0.0,88,0.00,,,0.00,meteohub,2013-08-10 07:08:00,
2013-08-10 03:13:00,74.1,70.3,30.12,North,353,0.0,0.0,88,0.00,,,0.00,meteohub,2013-08-10 07:13:00,
2013-08-10 03:18:00,73.9,70.2,30.12,North,353,0.0,0.0,88,0.00,,,0.00,meteohub,2013-08-10 07:18:00,
2013-08-10 03:23:00,73.9,70.2,30.12,North,353,0.0,0.0,88,0.00,,,0.00,meteohub,2013-08-10 07:23:00,
2013-08-10 03:29:00,73.9,70.2,30.12,North,353,0.0,0.0,88,0.00,,,0.00,meteohub,2013-08-10 07:29:00,
2013-08-10 03:34:00,73.8,70.0,30.12,North,353,0.0,0.0,88,0.00,,,0.00,meteohub,2013-08-10 07:34:00,
2013-08-10 03:39:00,73.8,70.0,30.12,North,353,0.0,0.0,88,0.00,,,0.00,meteohub,2013-08-10 07:39:00,
2013-08-10 03:44:00,73.8,70.3,30.12,North,353,0.0,0.0,89,0.00,,,0.00,meteohub,2013-08-10 07:44:00,
2013-08-10 03:49:00,73.6,70.2,30.12,North,353,0.0,0.0,89,0.00,,,0.00,meteohub,2013-08-10 07:49:00,
2013-08-10 03:54:00,73.6,70.2,30.12,North,353,0.0,0.0,89,0.00,,,0.00,meteohub,2013-08-10 07:54:00,
2013-08-10 03:59:00,73.6,70.2,30.12,North,353,0.0,0.0,89,0.00,,,0.00,meteohub,2013-08-10 07:59:00,
2013-08-10 04:04:00,73.6,70.2,30.12,North,353,0.0,0.0,89,0.00,,,0.00,meteohub,2013-08-10 08:04:00,
2013-08-10 04:09:00,73.6,70.2,30.12,North,353,0.0,0.0,89,0.00,,,0.00,meteohub,2013-08-10 08:09:00,
2013-08-10 04:14:00,73.6,70.2,30.12,North,353,0.0,0.0,89,0.00,,,0.00,meteohub,2013-08-10 08:14:00,
2013-08-10 04:19:00,73.4,70.0,30.12,North,353,0.0,0.0,89,0.00,,,0.00,meteohub,2013-08-10 08:19:00,
2013-08-10 04:24:00,73.4,70.0,30.12,North,353,0.0,0.0,89,0.00,,,0.00,meteohub,2013-08-10 08:24:00,
2013-08-10 04:29:00,73.4,70.0,30.12,North,353,0.0,0.0,89,0.00,,,0.00,meteohub,2013-08-10 08:29:00,
2013-08-10 04:34:00,73.4,70.0,30.12,North,353,0.0,0.0,89,0.00,,,0.00,meteohub,2013-08-10 08:34:00,
2013-08-10 04:39:00,73.2,70.2,30.12,North,353,0.0,0.0,90,0.00,,,0.00,meteohub,2013-08-10 08:39:00,
2013-08-10 04:44:00,73.2,69.8,30.12,North,353,0.0,0.0,89,0.00,,,0.00,meteohub,2013-08-10 08:44:00,
2013-08-10 04:49:00,73.2,70.2,30.12,North,353,0.0,0.0,90,0.00,,,0.00,meteohub,2013-08-10 08:49:00,
2013-08-10 04:54:00,73.2,70.2,30.12,North,353,0.0,0.0,90,0.00,,,0.00,meteohub,2013-08-10 08:54:00,
2013-08-10 04:59:00,73.2,70.2,30.12,North,353,0.0,0.0,90,0.00,,,0.00,meteohub,2013-08-10 08:59:00,
2013-08-10 05:04:00,73.2,70.2,30.12,North,353,0.0,0.0,90,0.00,,,0.00,meteohub,2013-08-10 09:04:00,
2013-08-10 05:09:00,73.0,70.0,30.12,North,353,0.0,0.0,90,0.00,,,0.00,meteohub,2013-08-10 09:09:00,
2013-08-10 05:14:00,73.0,70.0,30.12,North,353,0.0,0.0,90,0.00,,,0.00,meteohub,2013-08-10 09:14:00,
2013-08-10 05:19:00,73.0,70.0,30.12,North,353,0.0,0.0,90,0.00,,,0.00,meteohub,2013-08-10 09:19:00,
2013-08-10 05:24:00,73.0,70.0,30.12,North,353,0.0,0.0,90,0.00,,,0.00,meteohub,2013-08-10 09:24:00,
2013-08-10 05:29:00,73.0,70.0,30.12,North,353,0.0,0.0,90,0.00,,,0.00,meteohub,2013-08-10 09:29:00,
2013-08-10 05:34:00,73.0,70.0,30.12,North,353,0.0,0.0,90,0.00,,,0.00,meteohub,2013-08-10 09:34:00,
2013-08-10 05:39:00,73.0,70.0,30.12,North,353,0.0,0.0,90,0.00,,,0.00,meteohub,2013-08-10 09:39:00,
2013-08-10 05:44:00,73.2,70.2,30.12,North,353,0.0,0.0,90,0.00,,,0.00,meteohub,2013-08-10 09:44:00,
2013-08-10 05:49:00,73.2,70.5,30.12,North,353,0.0,0.0,91,0.00,,,0.00,meteohub,2013-08-10 09:49:00,
2013-08-10 05:54:00,73.2,70.5,30.12,North,353,0.0,0.0,91,0.00,,,0.00,meteohub,2013-08-10 09:54:00,
2013-08-10 05:59:00,73.2,70.5,30.12,North,353,0.0,0.0,91,0.00,,,0.00,meteohub,2013-08-10 09:59:00,
2013-08-10 06:04:00,73.2,70.5,30.12,North,353,0.0,0.0,91,0.00,,,0.00,meteohub,2013-08-10 10:04:00,
2013-08-10 06:09:00,73.2,70.5,30.12,North,353,0.0,0.0,91,0.00,,,0.00,meteohub,2013-08-10 10:09:00,
2013-08-10 06:15:00,73.4,70.3,30.15,North,353,0.0,0.0,90,0.00,,,0.00,meteohub,2013-08-10 10:15:00,
2013-08-10 06:20:00,73.4,70.3,30.15,North,353,0.0,0.0,90,0.00,,,0.00,meteohub,2013-08-10 10:20:00,
2013-08-10 06:25:00,73.4,70.5,30.15,North,353,0.0,0.0,91,0.00,,,0.00,meteohub,2013-08-10 10:25:00,
2013-08-10 06:30:00,73.4,70.5,30.15,North,353,0.0,0.0,91,0.00,,,0.00,meteohub,2013-08-10 10:30:00,
2013-08-10 06:35:00,73.6,70.7,30.15,North,353,0.0,0.0,91,0.00,,,0.00,meteohub,2013-08-10 10:35:00,
2013-08-10 06:40:00,73.6,70.7,30.15,North,353,0.0,0.0,91,0.00,,,0.00,meteohub,2013-08-10 10:40:00,
2013-08-10 06:45:00,73.6,70.7,30.15,North,353,0.0,0.0,91,0.00,,,0.00,meteohub,2013-08-10 10:45:00,
2013-08-10 06:50:00,73.6,70.7,30.15,North,353,0.0,0.0,91,0.00,,,0.00,meteohub,2013-08-10 10:50:00,
2013-08-10 06:55:00,73.6,71.1,30.15,North,353,0.0,0.0,92,0.00,,,0.00,meteohub,2013-08-10 10:55:00,
2013-08-10 07:00:00,73.6,71.1,30.15,North,353,0.0,0.0,92,0.00,,,0.00,meteohub,2013-08-10 11:00:00,
2013-08-10 07:05:00,73.8,71.2,30.15,North,353,0.0,0.0,92,0.00,,,0.00,meteohub,2013-08-10 11:05:00,
2013-08-10 07:10:00,73.8,71.6,30.15,North,353,0.0,0.0,93,0.00,,,0.00,meteohub,2013-08-10 11:10:00,
2013-08-10 07:15:00,73.8,71.6,30.15,North,353,0.0,0.0,93,0.00,,,0.00,meteohub,2013-08-10 11:15:00,
2013-08-10 07:20:00,73.8,71.6,30.15,North,353,0.0,0.0,93,0.00,,,0.00,meteohub,2013-08-10 11:20:00,
2013-08-10 07:25:00,73.9,71.8,30.15,North,353,0.0,0.0,93,0.00,,,0.00,meteohub,2013-08-10 11:25:00,
2013-08-10 07:30:00,73.9,71.8,30.15,North,353,0.0,0.0,93,0.00,,,0.00,meteohub,2013-08-10 11:30:00,
2013-08-10 07:35:00,73.9,71.8,30.15,North,353,0.0,0.0,93,0.00,,,0.00,meteohub,2013-08-10 11:35:00,
2013-08-10 07:40:00,74.1,72.0,30.15,North,353,0.0,0.0,93,0.00,,,0.00,meteohub,2013-08-10 11:40:00,
2013-08-10 07:45:00,74.1,72.0,30.15,North,353,0.0,0.0,93,0.00,,,0.00,meteohub,2013-08-10 11:45:00,
2013-08-10 07:50:00,74.1,72.0,30.15,North,353,0.0,0.0,93,0.00,,,0.00,meteohub,2013-08-10 11:50:00,
2013-08-10 07:55:00,74.3,72.1,30.15,North,353,0.0,4.0,93,0.00,,,0.00,meteohub,2013-08-10 11:55:00,
2013-08-10 08:00:00,74.3,72.1,30.15,North,353,0.0,4.0,93,0.00,,,0.00,meteohub,2013-08-10 12:00:00,
2013-08-10 08:05:00,74.5,72.3,30.15,North,353,0.0,4.0,93,0.00,,,0.00,meteohub,2013-08-10 12:05:00,
2013-08-10 08:10:00,74.7,72.5,30.15,North,353,0.0,4.0,93,0.00,,,0.00,meteohub,2013-08-10 12:10:00,
2013-08-10 08:15:00,74.7,72.5,30.15,North,353,0.0,4.0,93,0.00,,,0.00,meteohub,2013-08-10 12:15:00,
2013-08-10 08:20:00,74.8,72.7,30.15,North,353,0.0,4.0,93,0.00,,,0.00,meteohub,2013-08-10 12:20:00,
2013-08-10 08:25:00,74.8,72.7,30.15,North,353,4.0,4.0,93,0.00,,,0.00,meteohub,2013-08-10 12:25:00,
2013-08-10 08:30:00,74.8,72.7,30.18,North,353,0.0,4.0,93,0.00,,,0.00,meteohub,2013-08-10 12:30:00,
2013-08-10 08:35:00,75.0,72.9,30.18,North,353,0.0,4.0,93,0.00,,,0.00,meteohub,2013-08-10 12:35:00,
2013-08-10 08:40:00,75.4,73.2,30.18,North,353,0.0,4.0,93,0.00,,,0.00,meteohub,2013-08-10 12:40:00,
2013-08-10 08:45:00,76.1,73.9,30.18,North,353,3.0,4.0,93,0.00,,,0.00,meteohub,2013-08-10 12:45:00,
2013-08-10 08:50:00,77.0,74.5,30.18,North,353,0.0,6.0,92,0.00,,,0.00,meteohub,2013-08-10 12:50:00,
2013-08-10 08:55:00,78.1,74.8,30.18,North,353,0.0,6.0,90,0.00,,,0.00,meteohub,2013-08-10 12:55:00,
2013-08-10 09:00:00,81.5,76.8,30.18,North,353,0.0,6.0,86,0.00,,,0.00,meteohub,2013-08-10 13:00:00,
2013-08-10 09:05:00,84.0,76.8,30.18,North,353,0.0,3.0,79,0.00,,,0.00,meteohub,2013-08-10 13:05:00,
2013-08-10 09:10:00,86.0,76.8,30.18,North,353,0.0,3.0,74,0.00,,,0.00,meteohub,2013-08-10 13:10:00,
2013-08-10 09:15:00,87.4,75.2,30.18,North,353,0.0,4.0,67,0.00,,,0.00,meteohub,2013-08-10 13:15:00,
2013-08-10 09:20:00,88.7,75.0,30.18,North,353,0.0,4.0,64,0.00,,,0.00,meteohub,2013-08-10 13:20:00,
2013-08-10 09:25:00,88.7,73.6,30.18,North,353,5.0,5.0,61,0.00,,,0.00,meteohub,2013-08-10 13:25:00,
2013-08-10 09:30:00,87.3,71.6,30.18,North,353,0.0,5.0,60,0.00,,,0.00,meteohub,2013-08-10 13:30:00,
2013-08-10 09:35:00,87.3,71.6,30.18,North,353,0.0,5.0,60,0.00,,,0.00,meteohub,2013-08-10 13:35:00,
2013-08-10 09:41:00,88.0,70.3,30.18,North,353,0.0,5.0,56,0.00,,,0.00,meteohub,2013-08-10 13:41:00,
2013-08-10 09:45:00,89.2,68.7,30.18,North,353,0.0,4.0,51,0.00,,,0.00,meteohub,2013-08-10 13:45:00,
2013-08-10 09:50:00,90.3,68.0,30.18,North,353,0.0,4.0,48,0.00,,,0.00,meteohub,2013-08-10 13:50:00,
2013-08-10 09:56:00,91.0,68.0,30.18,North,353,0.0,5.0,47,0.00,,,0.00,meteohub,2013-08-10 13:56:00,
2013-08-10 10:01:00,91.2,66.9,30.18,North,353,0.0,5.0,45,0.00,,,0.00,meteohub,2013-08-10 14:01:00,
2013-08-10 10:06:00,91.0,66.7,30.18,North,353,3.0,5.0,45,0.00,,,0.00,meteohub,2013-08-10 14:06:00,
2013-08-10 10:11:00,90.3,66.0,30.18,North,353,0.0,5.0,45,0.00,,,0.00,meteohub,2013-08-10 14:11:00,
2013-08-10 10:16:00,90.1,67.1,30.18,North,353,0.0,5.0,47,0.00,,,0.00,meteohub,2013-08-10 14:16:00,
2013-08-10 10:21:00,90.5,67.5,30.18,North,353,0.0,5.0,47,0.00,,,0.00,meteohub,2013-08-10 14:21:00,
2013-08-10 10:26:00,90.9,68.5,30.18,North,353,0.0,6.0,48,0.00,,,0.00,meteohub,2013-08-10 14:26:00,
2013-08-10 10:31:00,90.7,68.9,30.18,North,353,2.0,6.0,49,0.00,,,0.00,meteohub,2013-08-10 14:31:00,
2013-08-10 10:36:00,90.7,70.7,30.18,North,353,0.0,6.0,52,0.00,,,0.00,meteohub,2013-08-10 14:36:00,
2013-08-10 10:41:00,89.6,69.6,30.18,North,353,0.0,6.0,52,0.00,,,0.00,meteohub,2013-08-10 14:41:00,
2013-08-10 10:46:00,89.4,69.4,30.18,North,353,0.0,5.0,52,0.00,,,0.00,meteohub,2013-08-10 14:46:00,
2013-08-10 10:51:00,89.1,69.1,30.18,North,353,0.0,5.0,52,0.00,,,0.00,meteohub,2013-08-10 14:51:00,
2013-08-10 10:56:00,88.7,68.2,30.18,North,353,0.0,5.0,51,0.00,,,0.00,meteohub,2013-08-10 14:56:00,
2013-08-10 11:01:00,88.2,67.1,30.18,North,353,2.0,5.0,50,0.00,,,0.00,meteohub,2013-08-10 15:01:00,
2013-08-10 11:06:00,88.2,67.8,30.18,North,353,0.0,5.0,51,0.00,,,0.00,meteohub,2013-08-10 15:06:00,
2013-08-10 11:11:00,88.5,68.7,30.18,North,353,0.0,5.0,52,0.00,,,0.00,meteohub,2013-08-10 15:11:00,
2013-08-10 11:16:00,88.2,67.8,30.18,North,353,0.0,4.0,51,0.00,,,0.00,meteohub,2013-08-10 15:16:00,
2013-08-10 11:21:00,88.0,67.6,30.18,North,353,3.0,5.0,51,0.00,,,0.00,meteohub,2013-08-10 15:21:00,
2013-08-10 11:26:00,87.6,67.8,30.18,North,353,4.0,5.0,52,0.00,,,0.00,meteohub,2013-08-10 15:26:00,
2013-08-10 11:31:00,87.4,67.1,30.15,North,353,3.0,5.0,51,0.00,,,0.00,meteohub,2013-08-10 15:31:00,
2013-08-10 11:36:00,87.4,67.6,30.15,North,353,0.0,5.0,52,0.00,,,0.00,meteohub,2013-08-10 15:36:00,
2013-08-10 11:41:00,87.4,67.6,30.15,North,353,0.0,6.0,52,0.00,,,0.00,meteohub,2013-08-10 15:41:00,
2013-08-10 11:46:00,87.3,67.5,30.18,North,353,0.0,6.0,52,0.00,,,0.00,meteohub,2013-08-10 15:46:00,
2013-08-10 11:51:00,87.3,67.5,30.18,North,353,4.0,6.0,52,0.00,,,0.00,meteohub,2013-08-10 15:51:00,
2013-08-10 11:56:00,87.1,67.3,30.18,North,353,3.0,5.0,52,0.00,,,0.00,meteohub,2013-08-10 15:56:00,
2013-08-10 12:01:00,87.1,67.3,30.18,North,353,3.0,6.0,52,0.00,,,0.00,meteohub,2013-08-10 16:01:00,
2013-08-10 12:06:00,87.3,68.0,30.18,North,353,2.0,6.0,53,0.00,,,0.00,meteohub,2013-08-10 16:06:00,
2013-08-10 12:11:00,87.1,67.3,30.18,North,353,5.0,6.0,52,0.00,,,0.00,meteohub,2013-08-10 16:11:00,
2013-08-10 12:16:00,86.9,67.1,30.18,North,353,0.0,6.0,52,0.00,,,0.00,meteohub,2013-08-10 16:16:00,
2013-08-10 12:21:00,87.1,67.8,30.18,North,353,2.0,6.0,53,0.00,,,0.00,meteohub,2013-08-10 16:21:00,
2013-08-10 12:26:00,87.1,68.4,30.18,North,353,4.0,6.0,54,0.00,,,0.00,meteohub,2013-08-10 16:26:00,
2013-08-10 12:31:00,87.1,68.4,30.18,North,353,0.0,6.0,54,0.00,,,0.00,meteohub,2013-08-10 16:31:00,
2013-08-10 12:36:00,87.1,68.9,30.18,North,353,3.0,6.0,55,0.00,,,0.00,meteohub,2013-08-10 16:36:00,
2013-08-10 12:41:00,87.1,68.4,30.18,North,353,0.0,6.0,54,0.00,,,0.00,meteohub,2013-08-10 16:41:00,
2013-08-10 12:46:00,87.1,68.9,30.15,North,353,3.0,6.0,55,0.00,,,0.00,meteohub,2013-08-10 16:46:00,
2013-08-10 12:51:00,86.9,68.7,30.15,North,353,0.0,6.0,55,0.00,,,0.00,meteohub,2013-08-10 16:51:00,
2013-08-10 12:56:00,87.1,68.9,30.15,North,353,0.0,6.0,55,0.00,,,0.00,meteohub,2013-08-10 16:56:00,
2013-08-10 13:01:00,87.1,68.4,30.15,North,353,2.0,6.0,54,0.00,,,0.00,meteohub,2013-08-10 17:01:00,
2013-08-10 13:06:00,87.1,67.8,30.15,North,353,0.0,6.0,53,0.00,,,0.00,meteohub,2013-08-10 17:06:00,
2013-08-10 13:11:00,87.1,68.4,30.15,North,353,2.0,8.0,54,0.00,,,0.00,meteohub,2013-08-10 17:11:00,
2013-08-10 13:16:00,87.1,68.4,30.15,North,353,0.0,8.0,54,0.00,,,0.00,meteohub,2013-08-10 17:16:00,
2013-08-10 13:21:00,87.3,68.0,30.15,North,353,3.0,8.0,53,0.00,,,0.00,meteohub,2013-08-10 17:21:00,
2013-08-10 13:26:00,87.3,68.0,30.15,North,353,3.0,6.0,53,0.00,,,0.00,meteohub,2013-08-10 17:26:00,
2013-08-10 13:31:00,87.1,67.8,30.15,North,353,0.0,10.0,53,0.00,,,0.00,meteohub,2013-08-10 17:31:00,
2013-08-10 13:36:00,87.3,67.5,30.15,North,353,0.0,10.0,52,0.00,,,0.00,meteohub,2013-08-10 17:36:00,
2013-08-10 13:41:00,87.4,67.6,30.15,North,353,3.0,10.0,52,0.00,,,0.00,meteohub,2013-08-10 17:41:00,
2013-08-10 13:46:00,87.4,66.6,30.15,North,353,4.0,8.0,50,0.00,,,0.00,meteohub,2013-08-10 17:46:00,
2013-08-10 13:51:00,87.6,67.3,30.15,North,353,6.0,8.0,51,0.00,,,0.00,meteohub,2013-08-10 17:51:00,
2013-08-10 13:56:00,87.6,66.7,30.15,North,353,0.0,8.0,50,0.00,,,0.00,meteohub,2013-08-10 17:56:00,
2013-08-10 14:02:00,88.0,66.9,30.15,North,353,5.0,6.0,50,0.00,,,0.00,meteohub,2013-08-10 18:02:00,
2013-08-10 14:07:00,88.2,67.8,30.15,North,353,0.0,6.0,51,0.00,,,0.00,meteohub,2013-08-10 18:07:00,
2013-08-10 14:12:00,88.3,66.7,30.15,North,353,0.0,5.0,49,0.00,,,0.00,meteohub,2013-08-10 18:12:00,
2013-08-10 14:17:00,88.5,66.9,30.15,North,353,2.0,5.0,49,0.00,,,0.00,meteohub,2013-08-10 18:17:00,
2013-08-10 14:22:00,87.4,63.5,30.15,North,353,8.0,8.0,45,0.00,,,0.00,meteohub,2013-08-10 18:22:00,
2013-08-10 14:27:00,86.2,60.4,30.15,North,353,3.0,15.0,42,0.00,,,0.00,meteohub,2013-08-10 18:27:00,
2013-08-10 14:32:00,84.4,59.4,30.18,North,353,4.0,15.0,43,0.00,,,0.00,meteohub,2013-08-10 18:32:00,
2013-08-10 14:37:00,83.5,59.4,30.18,North,353,4.0,15.0,44,0.00,,,0.00,meteohub,2013-08-10 18:37:00,
2013-08-10 14:42:00,82.9,59.4,30.18,North,353,3.0,9.0,45,0.00,,,0.00,meteohub,2013-08-10 18:42:00,
2013-08-10 14:47:00,82.6,60.3,30.18,North,353,0.0,8.0,47,0.00,,,0.00,meteohub,2013-08-10 18:47:00,
2013-08-10 14:52:00,82.0,60.4,30.18,North,353,4.0,9.0,48,0.00,,,0.00,meteohub,2013-08-10 18:52:00,
2013-08-10 14:57:00,81.5,59.9,30.18,North,353,5.0,9.0,48,0.00,,,0.00,meteohub,2013-08-10 18:57:00,
2013-08-10 15:02:00,80.6,61.3,30.18,North,353,4.0,9.0,52,0.00,,,0.00,meteohub,2013-08-10 19:02:00,
2013-08-10 15:07:00,80.2,63.7,30.18,North,353,0.0,9.0,57,0.13,,,0.13,meteohub,2013-08-10 19:07:00,
2013-08-10 15:12:00,80.4,65.3,30.18,North,353,0.0,8.0,60,0.13,,,0.13,meteohub,2013-08-10 19:12:00,
2013-08-10 15:17:00,80.8,66.0,30.15,North,353,0.0,7.0,61,0.13,,,0.13,meteohub,2013-08-10 19:17:00,
2013-08-10 15:22:00,81.0,66.7,30.15,North,353,0.0,5.0,62,0.13,,,0.13,meteohub,2013-08-10 19:22:00,
2013-08-10 15:27:00,81.1,67.3,30.15,North,353,0.0,3.0,63,0.13,,,0.13,meteohub,2013-08-10 19:27:00,
2013-08-10 15:32:00,81.1,67.3,30.15,North,353,0.0,3.0,63,0.13,,,0.13,meteohub,2013-08-10 19:32:00,
2013-08-10 15:37:00,81.1,66.9,30.15,North,353,0.0,3.0,62,0.13,,,0.13,meteohub,2013-08-10 19:37:00,
2013-08-10 15:42:00,81.1,66.9,30.15,North,353,0.0,3.0,62,0.13,,,0.13,meteohub,2013-08-10 19:42:00,
2013-08-10 15:47:00,81.3,68.0,30.15,North,353,4.0,4.0,64,0.13,,,0.13,meteohub,2013-08-10 19:47:00,
2013-08-10 15:52:00,81.3,68.0,30.15,North,353,4.0,4.0,64,0.13,,,0.13,meteohub,2013-08-10 19:52:00,
2013-08-10 15:57:00,81.3,68.0,30.15,North,353,0.0,4.0,64,0.13,,,0.13,meteohub,2013-08-10 19:57:00,
2013-08-10 16:02:00,81.3,68.0,30.12,North,353,2.0,5.0,64,0.04,,,0.13,meteohub,2013-08-10 20:02:00,
2013-08-10 16:07:00,81.3,68.4,30.12,North,353,3.0,5.0,65,0.00,,,0.13,meteohub,2013-08-10 20:07:00,
2013-08-10 16:12:00,81.3,68.4,30.12,North,353,0.0,4.0,65,0.00,,,0.13,meteohub,2013-08-10 20:12:00,
2013-08-10 16:17:00,81.3,68.4,30.12,North,353,3.0,4.0,65,0.00,,,0.13,meteohub,2013-08-10 20:17:00,
2013-08-10 16:22:00,81.3,68.0,30.12,North,353,3.0,4.0,64,0.00,,,0.13,meteohub,2013-08-10 20:22:00,
2013-08-10 16:27:00,81.5,68.5,30.12,North,353,5.0,5.0,65,0.00,,,0.13,meteohub,2013-08-10 20:27:00,
2013-08-10 16:32:00,81.3,68.4,30.12,North,353,0.0,6.0,65,0.00,,,0.13,meteohub,2013-08-10 20:32:00,
2013-08-10 16:37:00,81.5,69.1,30.12,North,353,4.0,6.0,66,0.00,,,0.13,meteohub,2013-08-10 20:37:00,
2013-08-10 16:42:00,81.5,69.1,30.12,North,353,4.0,6.0,66,0.00,,,0.13,meteohub,2013-08-10 20:42:00,
2013-08-10 16:47:00,81.5,68.5,30.12,North,353,0.0,4.0,65,0.00,,,0.13,meteohub,2013-08-10 20:47:00,
2013-08-10 16:52:00,81.3,67.5,30.12,North,353,0.0,4.0,63,0.00,,,0.13,meteohub,2013-08-10 20:52:00,
2013-08-10 16:57:00,81.3,67.5,30.12,North,353,0.0,4.0,63,0.00,,,0.13,meteohub,2013-08-10 20:57:00,
2013-08-10 17:02:00,81.3,67.5,30.12,North,353,0.0,4.0,63,0.00,,,0.13,meteohub,2013-08-10 21:02:00,
2013-08-10 17:07:00,81.3,67.5,30.12,North,353,2.0,4.0,63,0.00,,,0.13,meteohub,2013-08-10 21:07:00,
2013-08-10 17:12:00,81.1,67.8,30.12,North,353,0.0,4.0,64,0.00,,,0.13,meteohub,2013-08-10 21:12:00,
2013-08-10 17:17:00,81.1,67.3,30.12,North,353,0.0,4.0,63,0.00,,,0.13,meteohub,2013-08-10 21:17:00,
2013-08-10 17:22:00,81.1,67.3,30.12,North,353,0.0,3.0,63,0.00,,,0.13,meteohub,2013-08-10 21:22:00,
2013-08-10 17:27:00,81.1,67.3,30.12,North,353,0.0,0.0,63,0.00,,,0.13,meteohub,2013-08-10 21:27:00,
2013-08-10 17:32:00,81.1,66.9,30.12,North,353,0.0,5.0,62,0.00,,,0.13,meteohub,2013-08-10 21:32:00,
2013-08-10 17:37:00,81.1,66.9,30.12,North,353,0.0,5.0,62,0.00,,,0.13,meteohub,2013-08-10 21:37:00,
2013-08-10 17:42:00,81.3,66.6,30.12,North,353,2.0,5.0,61,0.00,,,0.13,meteohub,2013-08-10 21:42:00,
2013-08-10 17:47:00,81.3,67.1,30.12,North,353,0.0,4.0,62,0.00,,,0.13,meteohub,2013-08-10 21:47:00,
2013-08-10 17:52:00,81.1,66.4,30.12,North,353,0.0,4.0,61,0.00,,,0.13,meteohub,2013-08-10 21:52:00,
2013-08-10 17:57:00,81.0,66.2,30.12,North,353,0.0,4.0,61,0.00,,,0.13,meteohub,2013-08-10 21:57:00,
2013-08-10 18:02:00,80.8,66.6,30.12,North,353,0.0,2.0,62,0.00,,,0.13,meteohub,2013-08-10 22:02:00,
2013-08-10 18:07:00,80.6,66.4,30.12,North,353,0.0,2.0,62,0.00,,,0.13,meteohub,2013-08-10 22:07:00,
2013-08-10 18:12:00,80.6,66.9,30.12,North,353,0.0,2.0,63,0.00,,,0.13,meteohub,2013-08-10 22:12:00,
2013-08-10 18:17:00,80.4,67.6,30.15,North,353,0.0,0.0,65,0.00,,,0.13,meteohub,2013-08-10 22:17:00,
2013-08-10 18:22:00,80.4,68.0,30.15,North,353,0.0,0.0,66,0.00,,,0.13,meteohub,2013-08-10 22:22:00,
2013-08-10 18:27:00,80.2,68.4,30.15,North,353,3.0,3.0,67,0.00,,,0.13,meteohub,2013-08-10 22:27:00,
2013-08-10 18:32:00,80.2,67.8,30.15,North,353,3.0,5.0,66,0.00,,,0.13,meteohub,2013-08-10 22:32:00,
2013-08-10 18:37:00,80.1,67.6,30.15,North,353,4.0,6.0,66,0.00,,,0.13,meteohub,2013-08-10 22:37:00,
2013-08-10 18:43:00,79.7,66.9,30.15,North,353,0.0,9.0,65,0.00,,,0.13,meteohub,2013-08-10 22:43:00,
2013-08-10 18:48:00,79.3,66.0,30.15,North,353,3.0,9.0,64,0.00,,,0.13,meteohub,2013-08-10 22:48:00,
2013-08-10 18:53:00,79.2,65.5,30.15,North,353,0.0,9.0,63,0.00,,,0.13,meteohub,2013-08-10 22:53:00,
2013-08-10 18:58:00,79.0,65.3,30.15,North,353,0.0,5.0,63,0.00,,,0.13,meteohub,2013-08-10 22:58:00,
2013-08-10 19:03:00,78.8,65.1,30.15,North,353,0.0,5.0,63,0.00,,,0.13,meteohub,2013-08-10 23:03:00,
2013-08-10 19:08:00,78.6,65.5,30.15,North,353,8.0,8.0,64,0.00,,,0.13,meteohub,2013-08-10 23:08:00,
2013-08-10 19:13:00,78.3,65.1,30.15,North,353,3.0,5.0,64,0.00,,,0.13,meteohub,2013-08-10 23:13:00,
2013-08-10 19:18:00,78.1,64.9,30.15,North,353,5.0,10.0,64,0.00,,,0.13,meteohub,2013-08-10 23:18:00,
2013-08-10 19:23:00,77.9,64.8,30.15,North,353,0.0,10.0,64,0.00,,,0.13,meteohub,2013-08-10 23:23:00,
2013-08-10 19:28:00,77.7,64.9,30.15,North,353,0.0,10.0,65,0.00,,,0.13,meteohub,2013-08-10 23:28:00,
2013-08-10 19:33:00,77.5,64.8,30.15,North,353,0.0,6.0,65,0.00,,,0.13,meteohub,2013-08-10 23:33:00,
2013-08-10 19:38:00,77.4,65.1,30.15,North,353,0.0,4.0,66,0.00,,,0.13,meteohub,2013-08-10 23:38:00,
2013-08-10 19:43:00,77.4,65.1,30.15,North,353,3.0,4.0,66,0.00,,,0.13,meteohub,2013-08-10 23:43:00,
2013-08-10 19:48:00,77.2,64.9,30.18,North,353,3.0,5.0,66,0.00,,,0.13,meteohub,2013-08-10 23:48:00,
2013-08-10 19:53:00,77.0,64.8,30.18,North,353,0.0,5.0,66,0.00,,,0.13,meteohub,2013-08-10 23:53:00,
2013-08-10 19:58:00,77.0,65.1,30.15,North,353,0.0,5.0,67,0.00,,,0.13,meteohub,2013-08-10 23:58:00,
2013-08-10 20:03:00,76.8,65.5,30.15,North,353,0.0,5.0,68,0.00,,,0.13,meteohub,2013-08-11 00:03:00,
2013-08-10 20:08:00,76.6,65.7,30.15,North,353,0.0,2.0,69,0.00,,,0.00,meteohub,2013-08-11 00:08:00,
2013-08-10 20:13:00,76.6,65.7,30.15,North,353,0.0,2.0,69,0.00,,,0.00,meteohub,2013-08-11 00:13:00,
2013-08-10 20:18:00,76.5,65.5,30.15,North,353,0.0,2.0,69,0.00,,,0.00,meteohub,2013-08-11 00:18:00,
2013-08-10 20:23:00,76.5,66.0,30.15,North,353,0.0,2.0,70,0.00,,,0.00,meteohub,2013-08-11 00:23:00,
2013-08-10 20:28:00,76.3,65.8,30.15,North,353,0.0,3.0,70,0.00,,,0.00,meteohub,2013-08-11 00:28:00,
2013-08-10 20:33:00,76.3,65.8,30.15,North,353,0.0,3.0,70,0.00,,,0.00,meteohub,2013-08-11 00:33:00,
2013-08-10 20:38:00,76.3,66.2,30.15,North,353,0.0,3.0,71,0.00,,,0.00,meteohub,2013-08-11 00:38:00,
2013-08-10 20:43:00,76.1,66.0,30.15,North,353,3.0,3.0,71,0.00,,,0.00,meteohub,2013-08-11 00:43:00,
2013-08-10 20:48:00,76.1,66.4,30.15,North,353,0.0,3.0,72,0.00,,,0.00,meteohub,2013-08-11 00:48:00,
2013-08-10 20:53:00,75.9,66.6,30.15,North,353,0.0,4.0,73,0.00,,,0.00,meteohub,2013-08-11 00:53:00,
2013-08-10 20:58:00,75.9,66.2,30.18,North,353,0.0,4.0,72,0.00,,,0.00,meteohub,2013-08-11 00:58:00,
2013-08-10 21:03:00,75.9,66.2,30.18,North,353,0.0,3.0,72,0.00,,,0.00,meteohub,2013-08-11 01:03:00,
2013-08-10 21:08:00,75.9,66.6,30.18,North,353,0.0,3.0,73,0.00,,,0.00,meteohub,2013-08-11 01:08:00,
2013-08-10 21:13:00,75.7,66.4,30.18,North,353,0.0,3.0,73,0.00,,,0.00,meteohub,2013-08-11 01:13:00,
2013-08-10 21:18:00,75.7,66.4,30.18,North,353,0.0,3.0,73,0.00,,,0.00,meteohub,2013-08-11 01:18:00,
2013-08-10 21:23:00,75.7,66.9,30.18,North,353,0.0,3.0,74,0.00,,,0.00,meteohub,2013-08-11 01:23:00,
2013-08-10 21:28:00,75.6,66.7,30.18,North,353,0.0,3.0,74,0.00,,,0.00,meteohub,2013-08-11 01:28:00,
2013-08-10 21:33:00,75.4,66.6,30.18,North,353,0.0,3.0,74,0.00,,,0.00,meteohub,2013-08-11 01:33:00,
2013-08-10 21:38:00,75.4,66.6,30.18,North,353,0.0,2.0,74,0.00,,,0.00,meteohub,2013-08-11 01:38:00,
2013-08-10 21:43:00,75.2,66.4,30.18,North,353,0.0,2.0,74,0.00,,,0.00,meteohub,2013-08-11 01:43:00,
2013-08-10 21:49:00,75.2,66.7,30.18,North,353,0.0,0.0,75,0.00,,,0.00,meteohub,2013-08-11 01:49:00,
2013-08-10 21:54:00,75.0,66.6,30.18,North,353,0.0,0.0,75,0.00,,,0.00,meteohub,2013-08-11 01:54:00,
2013-08-10 21:59:00,75.0,66.6,30.18,North,353,0.0,0.0,75,0.00,,,0.00,meteohub,2013-08-11 01:59:00,
2013-08-10 22:04:00,75.0,66.9,30.18,North,353,0.0,0.0,76,0.00,,,0.00,meteohub,2013-08-11 02:04:00,
2013-08-10 22:09:00,74.8,66.7,30.18,North,353,0.0,0.0,76,0.00,,,0.00,meteohub,2013-08-11 02:09:00,
2013-08-10 22:14:00,74.7,66.9,30.18,North,353,0.0,0.0,77,0.00,,,0.00,meteohub,2013-08-11 02:14:00,
2013-08-10 22:19:00,74.7,66.9,30.18,North,353,0.0,0.0,77,0.00,,,0.00,meteohub,2013-08-11 02:19:00,
2013-08-10 22:24:00,74.7,66.9,30.18,North,353,0.0,0.0,77,0.00,,,0.00,meteohub,2013-08-11 02:24:00,
2013-08-10 22:29:00,74.5,67.1,30.18,North,353,0.0,0.0,78,0.00,,,0.00,meteohub,2013-08-11 02:29:00,
2013-08-10 22:34:00,74.3,66.9,30.18,North,353,0.0,0.0,78,0.00,,,0.00,meteohub,2013-08-11 02:34:00,
2013-08-10 22:39:00,74.3,66.9,30.18,North,353,0.0,0.0,78,0.00,,,0.00,meteohub,2013-08-11 02:39:00,
2013-08-10 22:44:00,74.3,67.3,30.18,North,353,0.0,0.0,79,0.00,,,0.00,meteohub,2013-08-11 02:44:00,
2013-08-10 22:50:00,74.1,67.1,30.18,North,353,0.0,0.0,79,0.00,,,0.00,meteohub,2013-08-11 02:50:00,
2013-08-10 22:56:00,74.1,67.1,30.18,North,353,0.0,0.0,79,0.00,,,0.00,meteohub,2013-08-11 02:56:00,
2013-08-10 23:01:00,73.9,67.1,30.18,North,353,0.0,0.0,79,0.00,,,0.00,meteohub,2013-08-11 03:01:00,
2013-08-10 23:07:00,73.9,67.5,30.18,North,353,0.0,3.0,80,0.00,,,0.00,meteohub,2013-08-11 03:07:00,
2013-08-10 23:12:00,73.9,67.5,30.18,North,353,0.0,3.0,80,0.00,,,0.00,meteohub,2013-08-11 03:12:00,
2013-08-10 23:17:00,73.9,67.5,30.18,North,353,0.0,3.0,80,0.00,,,0.00,meteohub,2013-08-11 03:17:00,
2013-08-10 23:22:00,73.8,67.3,30.18,North,353,0.0,0.0,80,0.00,,,0.00,meteohub,2013-08-11 03:22:00,
2013-08-10 23:27:00,73.8,67.3,30.18,North,353,0.0,0.0,80,0.00,,,0.00,meteohub,2013-08-11 03:27:00,
2013-08-10 23:32:00,73.8,67.3,30.18,North,353,0.0,0.0,80,0.00,,,0.00,meteohub,2013-08-11 03:32:00,
2013-08-10 23:37:00,73.6,67.1,30.18,North,353,0.0,0.0,80,0.00,,,0.00,meteohub,2013-08-11 03:37:00,
2013-08-10 23:42:00,73.6,67.1,30.18,North,353,0.0,0.0,80,0.00,,,0.00,meteohub,2013-08-11 03:42:00,
2013-08-10 23:47:00,73.6,67.1,30.18,North,353,0.0,0.0,80,0.00,,,0.00,meteohub,2013-08-11 03:47:00,
2013-08-10 23:53:00,73.6,67.1,30.18,North,353,0.0,0.0,80,0.00,,,0.00,meteohub,2013-08-11 03:53:00,